AirNav   Everest Fuels
 
 396 users online  

1MN8 Sky Harbor Residential Airpark
Webster, Minnesota, USA

GOING TO WEBSTER?


FAA INFORMATION EFFECTIVE 21 MAY 2020

Location

FAA Identifier: 1MN8
Lat/Long: 44-31-32.6600N 093-19-38.8500W
44-31.544333N 093-19.647500W
44.5257389,-93.3274583
(estimated)
Elevation: 1111 ft. / 338.6 m (surveyed)
Variation: 03E (1985)
From city: 1 mile SE of WEBSTER, MN
Time zone: UTC -5 (UTC -6 during Standard Time)
Zip code: 55088

Airport Operations

Airport use: Private use. Permission required prior to landing
Activation date: 08/1974
Control tower: no
ARTCC: MINNEAPOLIS CENTER
FSS: PRINCETON FLIGHT SERVICE STATION
Attendance: UNATNDD
Wind indicator: yes
Segmented circle: no
Lights: SS-SR

Airport Communications

WX AWOS-3 at LVN (7 nm NE): 118.0 (952-469-5850)
WX AWOS-3 at FBL (12 nm S): 111.2 (507-332-2505)
WX AWOS-3 at SYN (14 nm E): 119.35 (507-664-3806)
WX ASOS at FCM (19 nm N): 124.9 (952-941-4156)

Nearby radio navigation aids

VOR radial/distance  VOR name  Freq  Var
FGTr219/8.9FARMINGTON VORTAC115.7006E
FCMr164/18.6FLYING CLOUD VOR/DME117.7001E
FOWr003/19.4HALFWAY VOR/DME111.2002E
MSPr188/22.6MINNEAPOLIS VOR/DME115.3002E
MKTr047/31.1MANKATO VOR/DME110.8007E
GEPr171/37.2GOPHER VORTAC117.3006E

 
NDB name  Hdg/Dist  Freq  Var  ID
HOPEY215/26.640003EPPI .--. .--. ..
GLENCOE111/35.340703EGYL --. -.-- .-..

Airport Services

Airframe service: NONE
Powerplant service: NONE

Runway Information

Runway 12/30

Dimensions: 2755 x 138 ft. / 840 x 42 m
Surface: turf
Runway edge lights: low intensity
RUNWAY 12  RUNWAY 30
Latitude: 44-31.661333N44-31.427333N
Longitude: 093-19.918667W093-19.376333W
Elevation: 1111.0 ft.1111.0 ft.
Traffic pattern: leftleft
Runway heading: 118 magnetic, 121 true298 magnetic, 301 true
Touchdown point: yes, no lightsyes, no lights

Airport Ownership and Management from official FAA records

Ownership: Privately-owned
Owner: SKY HARBOR AIRPARK INC.
3299 45TH ST W
WEBSTER, MN 55088
Phone 612-968-1535
Manager: JODY DOYLE
3299 45TH ST W
WEBSTER, MN 55088
Phone 952-652-2042

Airport Operational Statistics

Aircraft based on the field: 21
Single engine airplanes: 18
Multi engine airplanes: 3
    

Additional Remarks

FOR CD CTC MINNEAPOLIS ARTCC AT 651-463-5588.

Instrument Procedures

There are no published instrument procedures at 1MN8.

Some nearby airports with instrument procedures:

KLVN - Airlake Airport (7 nm NE)
KFBL - Faribault Municipal Airport-Liz Wall Strohfus Field (12 nm S)
KFCM - Flying Cloud Airport (19 nm N)
KMSP - Minneapolis-St Paul International/Wold-Chamberlain Airport (22 nm N)
KSGS - South St Paul Municipal Airport-Richard E Fleming Field (24 nm NE)
 
Loc | Ops | Rwys | IFR | FBO | Links
Com | Nav | Svcs | Stats | Notes
Area around 1MN8 (Sky Harbor Residential Airpark)
 
Road maps at: MapQuest Bing Google
 
Aerial photo
WARNING: Photo may not be current or correct
Aerial photo of 1MN8 (Sky Harbor Residential Airpark)
Photo by Kate DeBaun
Photo taken 13-Aug-2006

Do you have a better or more recent aerial photo of Sky Harbor Residential Airpark that you would like to share? If so, please send us your photo.

 
Sectional chart

 
Airport distance calculator
Flying to Sky Harbor Residential Airpark? Find the distance to fly.

From to 1MN8

Sunrise and sunset
Times for 07-Jun-2020
 Local
(UTC-5)
 Zulu
(UTC)
Morning civil twilight04:5309:53
Sunrise05:3010:30
Sunset20:5501:55
Evening civil twilight21:3102:31

Current date and time
Zulu (UTC)  07-Jun-2020 07:07:27
Local (UTC-5)  07-Jun-2020 02:07:27
 
METAR
KLVN 
7nm NE 
070656Z AUTO 11005KT 10SM CLR 17/17 A2996 RMK AO2
KFBL 
13nm S 
070655Z AUTO 12012G17KT 10SM CLR 19/13 A2994 RMK AO2 LTG DSNT NW
KSYN 
14nm E 
070655Z AUTO 10005KT 10SM CLR 18/14 A2996 RMK AO2 P0001 T01800142
KFCM 
19nm N 
070653Z AUTO 11009KT 10SM FEW060 18/13 A2994 RMK AO2 RAE01 SLP134 P0000 T01780133
TAF
NOTAMs
Click for the latest NOTAMs
NOTAMs are issued by the DoD/FAA and will open in a separate window not controlled by AirNav.

 

 
 

Would you like to see your business listed on this page?

 If your business provides an interesting product or service to pilots, flight crews, aircraft, or users of the Sky Harbor Residential Airpark, you should consider listing it here.  To start the listing process, click on the button below
 
Add a business
 

Other Pages about Sky Harbor Residential Airpark

members.tcq.net/mdolan
 
Update a link
 
Copyright © AirNav, LLC. All rights reserved. Privacy Policy  Contact